Home   Weather   Avebury   Past weeks
Flag for United Kingdom

Past Weather in Avebury, England, United Kingdom — Yesterday and Last 2 Weeks

Now
48 °F

Clear.


Feels Like: 45 °F
Forecast: N/A
Wind: 7 mph from Northwest

Location: Brize Norton

Current Time: Mar 24, 2019 at 7:57:46 pm

Latest Report: Mar 24, 2019 at 6:50 pm


Visibility: 10 mi

Pressure: 30.39 "Hg

Humidity: 58%

Dew Point: 34 °F

Location of AveburyLocation

Past Weather in Avebury — Graph

°F

Avebury Temperature Yesterday

Maximum temperature yesterday: 52 °F (at 1:50 pm)
Minimum temperature yesterday: 43 °F (at 7:50 pm)
Average temperature yesterday: 47 °F

High & Low Weather Summary for the Past Weeks

 TemperatureHumidityPressure
High57 °F (Mar 15, 11:50 am)100% (Mar 10, 6:50 pm)30.54 "Hg (Mar 10, 6:50 pm)
Low34 °F (Mar 10, 6:50 pm)37% (Mar 10, 1:50 pm)29.33 "Hg (Mar 16, 6:50 pm)
Average48 °F80%30.05 "Hg
* Reported Mar 10 10:50 am — Mar 24 6:50 pm, Avebury. Weather by CustomWeather, © 2019

Note: Actual official high and low records may vary slightly from our data, if they occured in-between our weather recording intervals... More about our weather records

Advertising

Avebury Weather History for the Previous 24 Hours

Scroll right to see more
 ConditionsComfort  
Time TempWeatherWind HumidityBarometerVisibility
6:50 pm
Sun, Mar 24
48 °FClear.7 mph58%30.39 "Hg10 mi
5:50 pm50 °FPassing clouds.12 mph50%30.39 "HgN/A
4:50 pm52 °FPassing clouds.12 mph44%30.39 "HgN/A
3:50 pm54 °FPassing clouds.13 mph44%30.39 "HgN/A
2:50 pm55 °FPassing clouds.13 mph44%30.39 "HgN/A
1:50 pm54 °FPassing clouds.10 mph47%30.39 "HgN/A
12:50 pm54 °FPassing clouds.9 mph44%30.42 "HgN/A
11:50 am54 °FPassing clouds.9 mph51%30.45 "HgN/A
10:50 am52 °FPassing clouds.12 mph54%30.45 "HgN/A
9:50 am50 °FPassing clouds.5 mph58%30.45 "HgN/A
8:50 am48 °FPassing clouds.5 mph66%30.45 "HgN/A
7:50 am45 °FPassing clouds.3 mph76%30.45 "HgN/A
6:50 am39 °FPassing clouds.1 mph87%30.45 "HgN/A
5:50 am41 °FPassing clouds.1 mph87%30.45 "HgN/A
4:50 am41 °FPartly cloudy.5 mph87%30.45 "HgN/A
3:50 am41 °FPassing clouds.1 mph81%30.42 "HgN/A
2:50 am41 °FPassing clouds.No wind81%30.45 "HgN/A
1:50 am43 °FPartly cloudy.2 mph76%30.45 "HgN/A
12:50 am45 °FPartly cloudy.5 mph71%30.48 "HgN/A
11:50 pm
Sat, Mar 23
43 °FPartly cloudy.6 mph76%30.48 "HgN/A
10:50 pm43 °FPartly cloudy.6 mph76%30.48 "HgN/A
9:50 pm43 °FPartly cloudy.5 mph76%30.48 "HgN/A
8:50 pm43 °FClear.6 mph76%30.51 "Hg10 mi
7:50 pm43 °FClear.8 mph76%30.48 "Hg10 mi
7:02 pm45 °FClear.7 mph71%30.48 "Hg10 mi
Weather by CustomWeather, © 2019

See weather overview